+ View the NASA Portal
+ Center for Near-Earth Object Studies
IMPORTANT:
The SSD Announcement email list is now available. Major changes are coming in the near future, including possible hostname and/or URL changes. To be notified of such changes, subscribe to this email list.
Please visit
this page
for more details.
Don't show this message again
JPL Small-Body Database Browser
Search:
[
help
]
277930 (2006 KG118)
Classification:
Mars-crossing Asteroid
SPK-ID:
2277930
[
Ephemeris
|
Orbit Diagram
|
Orbital Elements
|
Mission Design
|
Physical Parameters
|
Discovery Circumstances
]
[ show orbit diagram ]
Orbital Elements at Epoch 2458600.5 (2019-Apr-27.0) TDB
Reference:
JPL 16
(heliocentric ecliptic J2000)
Element
Value
Uncertainty (1-sigma)
Units
e
.1010400752149024
3.1658e-08
a
1.835798612181361
8.9699e-09
au
q
1.650309382327143
5.6797e-08
au
i
19.19753080363741
4.7644e-06
deg
node
166.4288532105977
1.5402e-05
deg
peri
132.4364804048626
3.5303e-05
deg
M
11.86752157034097
3.2698e-05
deg
t
p
2458570.550228613168
(2019-Mar-28.05022861)
8.2491e-05
TDB
period
908.5231179360411
2.49
6.6587e-06
1.823e-08
d
yr
n
.3962474843984581
2.9041e-09
deg/d
Q
2.021287842035579
9.8762e-09
au
Orbit Determination Parameters
# obs. used (total)
264
data-arc span
6803 days (18.63 yr)
first obs. used
2001-03-19
last obs. used
2019-11-03
planetary ephem.
DE431
SB-pert. ephem.
SB431-N16
condition code
0
norm. resid. RMS
.62076
source
ORB
producer
Otto Matic
solution date
2019-Dec-04 20:12:00
Additional Information
Earth MOID
= .671589 au
Jupiter MOID
= 3.20224 au
T_jup
= 3.951
[ show covariance matrix ]
[
Ephemeris
|
Orbit Diagram
|
Orbital Elements
|
Mission Design
|
Physical Parameters
|
Discovery Circumstances
]
Physical Parameter Table
Parameter
Symbol
Value
Units
Sigma
Reference
Notes
absolute magnitude
H
17.7
n/a
MPO433796
277930 (2006 KG118)
Discovered 2006-May-23 by CSS at Catalina
Reference:
20110517/Numbers.arc
Last Updated:
2011-05-20
Alternate Designations
2006 KG118
= 2004 RR205
[
Ephemeris
|
Orbit Diagram
|
Orbital Elements
|
Mission Design
|
Physical Parameters
|
Discovery Circumstances
]
2019-Dec-08 05:34 UT
(server date/time)
Site Manager:
Ryan S. Park
Webmaster
:
Alan B. Chamberlin